This is the latest recevied weather packets stored in our database for station/object KQ4OSL. If no packets are shown the sender has not sent any weather packets the latest 10 day(s).
| Time | Temp. | Humidity | Pressure | Rain* | Wind** | Luminosity | Snow |
|---|---|---|---|---|---|---|---|
| 1788004944 | 20.56° C | 99% | 1022.3 hPa | 0 mm | - | 29 W/m² | - |
| 1788004644 | 20.56° C | 99% | 1022.1 hPa | 0 mm | - | 33 W/m² | - |
| 1788004339 | 20.56° C | 99% | 1022.1 hPa | 0 mm | - | 27 W/m² | - |
| 1788004039 | 20.56° C | 99% | 1022 hPa | 0 mm | - | 23 W/m² | - |
| 1788003737 | 20.56° C | 99% | 1022 hPa | 0 mm | - | 18 W/m² | - |
| 1788003433 | 20.56° C | 99% | 1021.9 hPa | 0 mm | - | 14 W/m² | - |
| 1788003133 | 20.56° C | 99% | 1021.9 hPa | 0 mm | - | 11 W/m² | - |
| 1788002832 | 20.56° C | 99% | 1021.6 hPa | 0 mm | - | 8 W/m² | - |
| 1788002528 | 20.56° C | 99% | 1021.8 hPa | 0 mm | - | 5 W/m² | - |
| 1788002223 | 20.56° C | 99% | 1021.8 hPa | 0 mm | - | 3 W/m² | - |
| 1788001924 | 20.56° C | 99% | 1021.7 hPa | 0 mm | - | 2 W/m² | - |
| 1788001619 | 20.56° C | 99% | 1021.7 hPa | 0 mm | - | 1 W/m² | - |
| 1788001318 | 20.56° C | 99% | 1021.4 hPa | 0 mm | - | 0 W/m² | - |
| 1788001013 | 20.56° C | 99% | 1021.5 hPa | 0 mm | - | 0 W/m² | - |
| 1788000708 | 20.56° C | 99% | 1021.4 hPa | 0 mm | - | 0 W/m² | - |
| 1788000404 | 20.56° C | 99% | 1021.4 hPa | 0 mm | - | 0 W/m² | - |
| 1788000103 | 20.56° C | 99% | 1021.3 hPa | 0 mm | - | 0 W/m² | - |
| 1787999800 | 20.56° C | 99% | 1021.2 hPa | 0 mm | - | 0 W/m² | - |
| 1787999497 | 20.56° C | 99% | 1021.1 hPa | 0 mm | - | 0 W/m² | - |
| 1787999192 | 20.56° C | 99% | 1021.1 hPa | 0 mm | - | 0 W/m² | - |
| 1787998886 | 20.56° C | 99% | 1021 hPa | 0 mm | - | 0 W/m² | - |
| 1787998585 | 20.56° C | 99% | 1020.9 hPa | 0 mm | - | 0 W/m² | - |
| 1787998285 | 20.56° C | 99% | 1021.2 hPa | 0 mm | - | 0 W/m² | - |
| 1787997980 | 20.56° C | 99% | 1021 hPa | 0 mm | - | 0 W/m² | - |
| 1787997680 | 20.56° C | 99% | 1020.9 hPa | 0 mm | - | 0 W/m² | - |
* Rain latest hour (hover to see other rain measurements)
** Current wind speed in m/s (hover to see current wind gust speed)